Weather History for Horseshoe Bay, TX

Change the Weather History Date:

Friday, November 2, 2012

  Actual Average (KBMQ) Record (KBMQ)
Temperature  
Mean Temperature 72 °F -  
Max Temperature 82 °F 69 °F 82 °F (2011)
Min Temperature 62 °F 50 °F 39 °F (1999)
Cooling Degree Days 7    
Growing Degree Days 22 (Base 50)    
Moisture  
Dew Point 57 °F    
Average Humidity 65    
Maximum Humidity 100    
Minimum Humidity 32    
Precipitation  
Precipitation 0.00 in - - ()
Sea Level Pressure  
Sea Level Pressure 29.99 in    
Wind  
Wind Speed - (North)    
Max Wind Speed -    
Max Gust Speed -    
Visibility 10 miles    
Events      
Averages and records for this station are not official NWS values.
T = Trace of Precipitation, MM = Missing Value Source: NWS Daily Summary

Daily Weather History Graph

Daily Weather History Graph

Search for Another Location

Airport:

Trip Planner

Search our weather history database for the weather conditions in past years. The results will help you decide how hot, cold, wet, or windy it might be!

Date:

Astronomy

Nov. 02, 2012 Rise Set
Actual Time 6:49 AM MDT 5:44 PM MDT
Civil Twilight 6:24 AM MDT 6:09 PM MDT
Nautical Twilight 5:55 AM MDT 6:37 PM MDT
Astronomical Twilight 5:27 AM MDT 7:05 PM MDT
Moon 8:40 PM MDT (11/2) 10:02 AM MDT (11/2)
Length of Visible Light 11h 44m
Length of Day
10h 55m
Waning Gibbous, 87% of the Moon is Illuminated
Nov 2
Waning Gibbous
Nov 6
Last Quarter
Nov 13
New
Nov 20
First Quarter
Nov 28
Full

Hourly Weather History & Observations

Time (MDT) Temp. Heat Index Dew Point Humidity Pressure Visibility Wind Dir Wind Speed Gust Speed Precip Events Conditions
12:15 AM 64.4 °F - 55.4 °F 73% 30.01 in 10.0 mi North - - N/A   Clear
12:35 AM 66.2 °F - 57.2 °F 73% 30.01 in 10.0 mi North - - N/A   Clear
12:55 AM 64.4 °F - 57.2 °F 77% 30.01 in 10.0 mi North - - N/A   Clear
1:15 AM 64.4 °F - 59.0 °F 83% 30.01 in 10.0 mi North - - N/A   Clear
1:35 AM 64.4 °F - 59.0 °F 83% 30.01 in 10.0 mi North - - N/A   Clear
1:55 AM 64.4 °F - 59.0 °F 83% 30.00 in 10.0 mi North - - N/A   Clear
2:15 AM 64.4 °F - 59.0 °F 83% 30.00 in 10.0 mi North - - N/A   Clear
2:35 AM 64.4 °F - 59.0 °F 83% 30.00 in 10.0 mi North - - N/A   Clear
2:55 AM 64.4 °F - 59.0 °F 83% 30.00 in 10.0 mi North - - N/A   Clear
3:15 AM 64.4 °F - 59.0 °F 83% 30.00 in 10.0 mi North - - N/A   Clear
3:35 AM 64.4 °F - 59.0 °F 83% 30.00 in 10.0 mi North - - N/A   Clear
3:55 AM 64.4 °F - 59.0 °F 83% 30.00 in 10.0 mi North - - N/A   Clear
4:15 AM 64.4 °F - 59.0 °F 83% 30.00 in 10.0 mi North - - N/A   Clear
4:35 AM 62.6 °F - 59.0 °F 88% 30.00 in 10.0 mi North - - N/A   Clear
4:55 AM 62.6 °F - 59.0 °F 88% 30.00 in 10.0 mi North - - N/A   Clear
5:15 AM 62.6 °F - 59.0 °F 88% 30.00 in 10.0 mi North - - N/A   Clear
5:35 AM 62.6 °F - 62.6 °F 100% 30.00 in 10.0 mi North - - N/A   Clear
5:55 AM 62.6 °F - 62.6 °F 100% 30.01 in 10.0 mi North - - N/A   Clear
6:15 AM 62.6 °F - 62.6 °F 100% 30.01 in 10.0 mi North - - N/A   Clear
6:35 AM 62.6 °F - 62.6 °F 100% 30.02 in 10.0 mi North - - N/A   Clear
7:55 AM 62.6 °F - 62.6 °F 100% 30.03 in 10.0 mi North - - N/A   Clear
8:15 AM 66.2 °F - 60.8 °F 83% 30.04 in 10.0 mi North - - N/A   Scattered Clouds
8:35 AM 68.0 °F - 60.8 °F 78% 30.04 in 10.0 mi North - - N/A   Clear
8:55 AM 69.8 °F - 60.8 °F 73% 30.04 in 10.0 mi North - - N/A   Clear
9:15 AM 69.8 °F - 60.8 °F 73% 30.05 in 10.0 mi North - - N/A   Clear
9:35 AM 71.6 °F - 60.8 °F 69% 30.05 in 10.0 mi North - - N/A   Clear
9:55 AM 73.4 °F - 60.8 °F 65% 30.05 in 10.0 mi North - - N/A   Clear
10:15 AM 75.2 °F - 59.0 °F 57% 30.05 in 10.0 mi North - - N/A   Clear
10:35 AM 77.0 °F - 59.0 °F 54% 30.04 in 10.0 mi North - - N/A   Clear
10:55 AM 77.0 °F - 59.0 °F 54% 30.04 in 10.0 mi North - - N/A   Clear
11:15 AM 77.0 °F - 60.8 °F 57% 30.03 in 10.0 mi North - - N/A   Clear
11:35 AM 78.8 °F - 59.0 °F 51% 30.02 in 10.0 mi North - - N/A   Clear
11:55 AM 78.8 °F - 57.2 °F 47% 30.01 in 10.0 mi North - - N/A   Clear
12:15 PM 80.6 °F 80.8 °F 57.2 °F 45% 30.00 in 10.0 mi North - - N/A   Clear
12:35 PM 80.6 °F 80.3 °F 53.6 °F 39% 29.99 in 10.0 mi North - - N/A   Clear
12:55 PM 80.6 °F 80.5 °F 55.4 °F 42% 29.98 in 10.0 mi North - - N/A   Clear
1:15 PM 82.4 °F 81.7 °F 55.4 °F 39% 29.97 in 10.0 mi North - - N/A   Clear
1:35 PM 82.4 °F 81.4 °F 53.6 °F 37% 29.96 in 10.0 mi North - - N/A   Clear
1:55 PM 82.4 °F 81.4 °F 53.6 °F 37% 29.95 in 10.0 mi North - - N/A   Clear
2:15 PM 82.4 °F 81.4 °F 53.6 °F 37% 29.94 in 10.0 mi North - - N/A   Clear
2:35 PM 82.4 °F 81.4 °F 53.6 °F 37% 29.94 in 10.0 mi North - - N/A   Clear
2:55 PM 82.4 °F 81.4 °F 53.6 °F 37% 29.93 in 10.0 mi North - - N/A   Scattered Clouds
3:15 PM 82.4 °F - 50.0 °F 32% 29.93 in 10.0 mi North - - N/A   Clear
3:35 PM 82.4 °F - 51.8 °F 35% 29.93 in 10.0 mi North - - N/A   Clear
3:55 PM 80.6 °F - 51.8 °F 37% 29.93 in 10.0 mi North - - N/A   Clear
4:15 PM 80.6 °F - 51.8 °F 37% 29.93 in 10.0 mi North - - N/A   Clear
4:35 PM 80.6 °F - 51.8 °F 37% 29.93 in 10.0 mi North - - N/A   Clear
4:55 PM 78.8 °F - 51.8 °F 39% 29.94 in 10.0 mi North - - N/A   Clear
5:15 PM 78.8 °F - 53.6 °F 42% 29.94 in 10.0 mi North - - N/A   Clear
5:35 PM 77.0 °F - 53.6 °F 44% 29.94 in 10.0 mi North - - N/A   Clear
5:55 PM 73.4 °F - 53.6 °F 50% 29.95 in 10.0 mi North - - N/A   Clear
6:15 PM 71.6 °F - 53.6 °F 53% 29.95 in 10.0 mi North - - N/A   Clear
6:35 PM 68.0 °F - 53.6 °F 60% 29.95 in 10.0 mi North - - N/A   Clear
6:55 PM 66.2 °F - 53.6 °F 64% 29.96 in 10.0 mi North - - N/A   Clear
7:15 PM 64.4 °F - 53.6 °F 68% 29.97 in 10.0 mi North - - N/A   Clear
7:35 PM 64.4 °F - 53.6 °F 68% 29.97 in 10.0 mi North - - N/A   Clear
7:55 PM 62.6 °F - 53.6 °F 72% 29.97 in 10.0 mi North - - N/A   Clear
8:15 PM 62.6 °F - 53.6 °F 72% 29.97 in 10.0 mi North - - N/A   Clear
8:35 PM 62.6 °F - 53.6 °F 72% 29.98 in 10.0 mi North - - N/A   Clear
8:55 PM 64.4 °F - 53.6 °F 68% 29.98 in 10.0 mi North - - N/A   Clear
9:15 PM 64.4 °F - 53.6 °F 68% 29.98 in 10.0 mi North - - N/A   Clear
9:35 PM 66.2 °F - 53.6 °F 64% 29.99 in 10.0 mi North - - N/A   Clear
9:55 PM 68.0 °F - 55.4 °F 64% 29.99 in 10.0 mi North - - N/A   Clear
10:15 PM 68.0 °F - 55.4 °F 64% 29.99 in 10.0 mi North - - N/A   Clear
10:35 PM 68.0 °F - 57.2 °F 68% 29.99 in 10.0 mi North - - N/A   Clear
10:55 PM 68.0 °F - 57.2 °F 68% 29.99 in 10.0 mi North - - N/A   Clear
11:15 PM 66.2 °F - 57.2 °F 73% 29.99 in 10.0 mi North - - N/A   Clear
11:35 PM 64.4 °F - 57.2 °F 77% 30.00 in 10.0 mi North - - N/A   Clear
11:55 PM 64.4 °F - 57.2 °F 77% 30.00 in 10.0 mi North - - N/A   Clear